Location: Buraco da Coruja
(19.9220°S, 44.0539°W)
Time: 04:36:03
(UTC+00:00)

Daily predictions for brighter satellites

Satellite Brightness Start Highest point End
(mag) Time Altitude Azimuth Time Altitude Azimuth Time Altitude Azimuth
Atlas Centaur 2 4.2 06:20:12 35° ESE 06:20:12 35° ESE 06:25:20 10° E
Palapa 6 Rocket 4.3 07:08:22 54° SE 07:08:22 54° SE 07:12:46 10° ESE
Ariane H10 4.5 07:07:17 17° NNE 07:07:37 17° NNE 07:12:04 10° ENE
Milstar 3 2.8 07:08:58 71° SSE 07:09:02 71° SSE 07:17:16 10° ENE
SEDSat Delta rocket 4.1 07:17:16 64° SSE 07:17:23 64° SSE 07:23:48 10° ENE
USA 281 3.1 07:10:52 10° SSE 07:17:29 85° ENE 07:24:02 10° NNW
Cosmos 1933 Rocket 4.3 07:26:03 51° ENE 07:26:03 51° ENE 07:29:48 10° NNE
Cosmos 1709 Rocket 3.8 07:25:26 54° S 07:26:58 87° E 07:33:05 10° N
Meteor 1-5 Rocket 4.0 07:33:33 68° SSW 07:34:17 86° W 07:39:42 10° N
Cosmos 1536 4.4 07:45:09 10° SSE 07:48:50 35° E 07:52:32 10° NNE
OAO 1 Rocket 4.3 07:48:49 60° WSW 07:49:49 85° NNW 07:55:10 10° NE
Envisat 2.9 07:45:37 10° NNE 07:50:42 89° WNW 07:53:31 27° SSW
USA 276 4.3 07:53:01 18° N 07:53:01 18° N 07:54:09 10° NNE
Hubble Space Telescope 1.6 07:55:38 36° S 07:55:54 37° SSE 07:59:47 10° E
Aurora 2 Rocket 2.7 07:56:33 37° SE 07:56:33 37° SE 07:58:57 10° E
CCE 1 Rocket 4.0 07:53:42 31° WNW 07:56:40 87° NNE 08:00:58 10° ESE
ADEOS 3.9 07:52:24 10° N 07:57:20 43° W 07:57:42 42° W
Cosmos 1340 Rocket 3.2 07:57:00 20° S 07:59:43 66° E 08:03:45 10° NNE
Meteor 1-11 Rocket 4.0 07:53:50 10° S 07:59:49 78° E 08:05:47 10° N
SL-27 R/B 3.7 08:02:18 26° NNW 08:02:18 26° NNW 08:04:00 10° N
Cosmos 1544 3.8 08:04:05 11° S 08:07:26 52° E 08:10:57 10° NNE
Atlas Centaur 2 3.1 08:02:47 30° WSW 08:07:32 89° SSE 08:16:02 10° ENE
Centaur D AC-25 4.4 08:03:28 22° WNW 08:07:56 89° SSW 08:55:55 10° ESE
YAOGAN 6 3.0 08:05:40 10° N 08:08:40 42° WNW 08:08:40 42° WNW
Meteor PRIRODA 3.6 08:06:56 10° N 08:10:36 64° W 08:11:56 36° SSW
H-2A ROCKET BODY 3.8 07:35:03 10° WNW 08:10:50 72° SSW 08:16:50 10° ESE
H-2A R/B 3.4 08:12:29 11° SSE 08:12:29 11° SSE 08:12:41 10° SSE
FUSE 4.1 08:11:18 32° WSW 08:13:42 64° SSE 08:19:00 10° E
Okean 1 3.2 08:15:17 10° N 08:19:20 87° W 08:23:25 10° S
Meteor 1-27 Rocket 4.5 08:15:30 10° NW 08:20:11 28° W 08:24:59 10° SSW
VEP-3 3.9 08:15:57 23° W 08:20:29 74° NNW 08:46:44 10° ENE
Cosmos 1515 3.7 08:16:48 10° NNW 08:20:30 56° W 08:24:16 10° S
Cosmos 1862 Rocket 4.0 08:16:31 10° N 08:20:54 65° E 08:25:18 10° SSE
H-2A R/B 1.8 08:27:45 15° SSE 08:27:45 15° SSE 08:28:34 10° ESE
H-2A R/B 3.9 08:28:24 10° SSE 08:32:35 36° E 08:36:40 10° NNE
MOS 1 Rocket 3.7 08:28:23 10° S 08:32:38 37° WSW 08:36:41 10° NW
SMAP 3.4 08:29:31 10° NNE 08:34:09 69° ESE 08:38:49 10° S
Okean O Rocket 3.8 08:32:41 10° NE 08:36:24 26° ESE 08:40:09 10° SSE
Cosmos 2184 Rocket 4.0 08:30:29 10° S 08:36:47 69° W 08:42:57 10° N
Cosmos 2154 Rocket 4.3 08:30:29 10° S 08:36:53 75° E 08:43:12 10° N
COSMOS 2487 2.2 08:33:42 10° SSW 08:37:01 73° WNW 08:40:22 10° N
Cosmos 1707 Rocket 4.2 08:33:18 10° NNW 08:37:11 32° W 08:41:07 10° SSW
Fermi 3.9 08:36:58 17° W 08:39:58 59° SSW 08:44:01 10° ESE
CZ-3 R/B 3.1 08:21:40 18° WSW 08:40:28 64° NW 08:47:09 10° NE
Cosmos 1869 Rocket 4.1 08:38:43 10° SSW 08:42:43 36° W 08:46:40 10° NNW
CZ-4B R/B 4.2 08:40:45 10° NNE 08:45:49 47° ESE 08:50:54 10° S
CZ-4B DEB 4.2 08:41:11 10° N 08:46:39 80° WNW 08:52:10 10° SSW
Meteor 2-12 Rocket 4.4 08:40:53 10° SSW 08:46:57 65° W 08:52:55 10° N
deb Chang Zheng 4 3.8 08:43:20 10° N 08:47:31 51° W 08:51:46 10° SSW
ASTRO E2 2.8 08:45:51 10° WNW 08:49:49 80° NNE 08:53:49 10° ESE
H-2A R/B 4.4 08:47:25 10° NE 08:51:20 23° ESE 08:55:11 10° SSE
NOAA 6 4.1 08:47:17 10° N 08:52:17 57° WNW 08:57:22 10° SSW
Cosmos 1733 Rocket 3.4 08:48:10 10° S 08:52:31 70° E 08:56:48 10° NNE
Cosmos 1939 Rocket 3.0 08:51:30 10° NNE 08:55:37 85° ESE 08:59:48 10° S
CENTAUR R/B 3.9 08:47:18 10° N 08:55:55 59° ENE 09:03:40 10° SE
Palapa 6 Rocket 3.6 08:50:13 11° WSW 08:56:08 71° S 09:01:03 10° E
SKYMED 2 3.5 08:52:19 10° S 08:56:42 81° WSW 09:01:02 10° NNW
Landsat 5 4.1 08:55:28 10° SSW 08:59:06 31° WSW 09:02:35 10° NW
Okean 1-7 3.9 08:55:20 10° N 08:59:29 53° E 09:03:40 10° SSE
CZ-4B R/B 3.8 08:57:30 10° SE 09:00:20 27° E 09:03:04 10° NNE
Cosmos 2297 Rocket 3.8 08:55:23 10° S 09:00:33 35° ESE 09:05:40 10° NE
Cosmos 1269 Rocket 4.3 08:55:15 10° S 09:00:35 75° ESE 09:05:52 10° NNE
Cosmos 2227 Rocket 4.2 09:00:01 10° S 09:04:49 28° ESE 09:09:34 10° NE
